Change the Weather History Date:

Monday, January 27, 2014

  Actual Average Record
Temperature  
Mean Temperature 36 °F -  
Max Temperature 46 °F 53 °F 75 °F (2015)
Min Temperature 26 °F 34 °F 19 °F (2004)
Degree Days  
Heating Degree Days 29    
Moisture  
Dew Point 10 °F    
Average Humidity 35    
Maximum Humidity 70    
Minimum Humidity 21    
Precipitation  
Precipitation 0.00 in - - ()
Sea Level Pressure  
Sea Level Pressure 30.14 in    
Wind  
Wind Speed 17 mph (North)    
Max Wind Speed 28 mph    
Max Gust Speed 34 mph    
Visibility 10 miles    
Events      
Averages and records for this station are not official NWS values.
T = Trace of Precipitation, MM = Missing Value Source: NWS Daily Summary

Daily Weather History Graph

Daily Weather History Graph

Search for Another Location

Airport or City:

Trip Planner

Search our weather history database for the weather conditions in past years. The results will help you decide how hot, cold, wet, or windy it might be!

Date:

Astronomy

Jan. 27, 2014 Rise Set
Actual Time 7:21 AM CST 5:48 PM CST
Civil Twilight 6:54 AM CST 6:14 PM CST
Nautical Twilight 6:24 AM CST 6:44 PM CST
Astronomical Twilight 5:55 AM CST 7:14 PM CST
Moon 4:01 AM CST 2:37 PM CST
Length of Visible Light 11h 19m
Length of Day
10h 26m
Waning Crescent, 14% of the Moon is Illuminated
Jan 27
Waning Crescent
Jan 30
New
Feb 6
First Quarter
Feb 14
Full
Feb 22
Last Quarter

Hourly Weather History & Observations

Time (CST) Temp. Windchill Dew Point Humidity Pressure Visibility Wind Dir Wind Speed Gust Speed Precip Events Conditions
12:15 AM 42.8 °F 38.0 °F 33.8 °F 70% 29.79 in 10.0 mi NE 8.1 mph - N/A   Clear
12:35 AM 44.6 °F 40.7 °F 33.8 °F 66% 29.79 in 10.0 mi NE 6.9 mph - N/A   Clear
12:55 AM 42.8 °F 38.6 °F 33.8 °F 70% 29.80 in 10.0 mi NE 6.9 mph - N/A   Clear
1:15 AM 42.8 °F 35.4 °F 33.8 °F 70% 29.81 in 10.0 mi NNE 15.0 mph 24.2 mph N/A   Clear
1:35 AM 44.6 °F 38.8 °F 32.0 °F 61% 29.83 in 10.0 mi North 11.5 mph - N/A   Clear
1:55 AM 44.6 °F 39.7 °F 32.0 °F 61% 29.84 in 10.0 mi North 9.2 mph - N/A   Clear
2:15 AM 42.8 °F 36.2 °F 32.0 °F 66% 29.86 in 10.0 mi North 12.7 mph - N/A   Clear
2:35 AM 46.4 °F 38.3 °F 32.0 °F 57% 29.88 in 10.0 mi North 23.0 mph 26.5 mph N/A   Clear
2:55 AM 46.4 °F 37.5 °F 30.2 °F 53% 29.90 in 10.0 mi North 27.6 mph 32.2 mph N/A   Clear
3:15 AM 44.6 °F 35.3 °F 28.4 °F 53% 29.91 in 10.0 mi North 26.5 mph 34.5 mph N/A   Clear
3:35 AM 44.6 °F 35.7 °F 26.6 °F 49% 29.94 in 10.0 mi North 24.2 mph 32.2 mph N/A   Clear
3:55 AM 42.8 °F 33.3 °F 26.6 °F 53% 29.95 in 10.0 mi North 24.2 mph 31.1 mph N/A   Clear
4:15 AM 42.8 °F 33.8 °F 24.8 °F 49% 29.96 in 10.0 mi North 21.9 mph 29.9 mph N/A   Clear
4:35 AM 41.0 °F 30.5 °F 23.0 °F 49% 29.96 in 10.0 mi North 26.5 mph 32.2 mph N/A   Clear
4:55 AM 39.2 °F 29.0 °F 21.2 °F 49% 29.98 in 10.0 mi North 21.9 mph 34.5 mph N/A   Clear
5:15 AM 37.4 °F 26.4 °F 19.4 °F 48% 30.00 in 10.0 mi North 23.0 mph 32.2 mph N/A   Clear
5:35 AM 37.4 °F 25.9 °F 17.6 °F 45% 30.01 in 10.0 mi North 25.3 mph 31.1 mph N/A   Clear
5:55 AM 37.4 °F 26.1 °F 15.8 °F 41% 30.03 in 10.0 mi North 24.2 mph 32.2 mph N/A   Clear
6:15 AM 35.6 °F 24.8 °F 12.2 °F 38% 30.04 in 10.0 mi North 19.6 mph 29.9 mph N/A   Clear
6:35 AM 35.6 °F 24.8 °F 12.2 °F 38% 30.07 in 10.0 mi North 19.6 mph 26.5 mph N/A   Clear
6:55 AM 35.6 °F 24.8 °F 10.4 °F 35% 30.08 in 10.0 mi North 19.6 mph 25.3 mph N/A   Clear
7:15 AM 33.8 °F 22.8 °F 10.4 °F 38% 30.11 in 10.0 mi North 18.4 mph 26.5 mph N/A   Clear
7:35 AM 33.8 °F 22.2 °F 8.6 °F 35% 30.12 in 10.0 mi North 20.7 mph 25.3 mph N/A   Clear
7:55 AM 33.8 °F 21.9 °F 8.6 °F 35% 30.13 in 10.0 mi North 21.9 mph 29.9 mph N/A   Clear
8:15 AM 33.8 °F 22.2 °F 8.6 °F 35% 30.14 in 10.0 mi North 20.7 mph 27.6 mph N/A   Clear
8:35 AM 33.8 °F 22.5 °F 8.6 °F 35% 30.15 in 10.0 mi North 19.6 mph 25.3 mph N/A   Clear
8:55 AM 33.8 °F 21.9 °F 6.8 °F 32% 30.18 in 10.0 mi North 21.9 mph 26.5 mph N/A   Clear
9:15 AM 35.6 °F 25.2 °F 6.8 °F 30% 30.19 in 10.0 mi North 18.4 mph 28.8 mph N/A   Clear
9:35 AM 35.6 °F 24.5 °F 6.8 °F 30% 30.20 in 10.0 mi North 20.7 mph 25.3 mph N/A   Clear
9:55 AM 37.4 °F 27.5 °F 6.8 °F 28% 30.22 in 10.0 mi North 18.4 mph 24.2 mph N/A   Clear
10:15 AM 37.4 °F 27.5 °F 6.8 °F 28% 30.23 in 10.0 mi North 18.4 mph 24.2 mph N/A   Clear
10:35 AM 37.4 °F 27.2 °F 5.0 °F 26% 30.24 in 10.0 mi NNE 19.6 mph 29.9 mph N/A   Clear
10:55 AM 37.4 °F 26.4 °F 3.2 °F 24% 30.24 in 10.0 mi NNE 23.0 mph - N/A   Clear
11:15 AM 39.2 °F 29.3 °F 3.2 °F 22% 30.25 in 10.0 mi NNE 20.7 mph 28.8 mph N/A   Clear
11:35 AM 39.2 °F 30.2 °F 3.2 °F 22% 30.25 in 10.0 mi North 17.3 mph 28.8 mph N/A   Clear
11:55 AM 39.2 °F 29.0 °F 5.0 °F 24% 30.25 in 10.0 mi North 21.9 mph 27.6 mph N/A   Clear
12:15 PM 39.2 °F 29.6 °F 3.2 °F 22% 30.24 in 10.0 mi North 19.6 mph 24.2 mph N/A   Clear
12:35 PM 41.0 °F 31.9 °F 5.0 °F 23% 30.23 in 10.0 mi North 19.6 mph 24.2 mph N/A   Clear
12:55 PM 41.0 °F 31.9 °F 3.2 °F 21% 30.23 in 10.0 mi North 19.6 mph 27.6 mph N/A   Clear
1:15 PM 39.2 °F 31.2 °F 3.2 °F 22% 30.22 in 10.0 mi NNE 13.8 mph 25.3 mph N/A   Clear
1:35 PM 39.2 °F 31.2 °F 3.2 °F 22% 30.21 in 10.0 mi North 13.8 mph 19.6 mph N/A   Clear
1:55 PM 39.2 °F 30.2 °F 3.2 °F 22% 30.21 in 10.0 mi North 17.3 mph 24.2 mph N/A   Clear
2:15 PM 39.2 °F 29.6 °F 3.2 °F 22% 30.20 in 10.0 mi North 19.6 mph 24.2 mph N/A   Clear
2:35 PM 39.2 °F 29.6 °F 3.2 °F 22% 30.19 in 10.0 mi North 19.6 mph 25.3 mph N/A   Clear
2:55 PM 39.2 °F 29.0 °F 3.2 °F 22% 30.20 in 10.0 mi North 21.9 mph 25.3 mph N/A   Clear
3:15 PM 39.2 °F 30.2 °F 1.4 °F 21% 30.21 in 10.0 mi North 17.3 mph 26.5 mph N/A   Clear
3:35 PM 37.4 °F 27.5 °F 1.4 °F 22% 30.21 in 10.0 mi North 18.4 mph 25.3 mph N/A   Clear
3:55 PM 37.4 °F 27.2 °F 1.4 °F 22% 30.21 in 10.0 mi North 19.6 mph - N/A   Clear
4:15 PM 37.4 °F 28.2 °F 3.2 °F 24% 30.22 in 10.0 mi North 16.1 mph 23.0 mph N/A   Clear
4:35 PM 35.6 °F 25.5 °F 3.2 °F 26% 30.23 in 10.0 mi NNE 17.3 mph 21.9 mph N/A   Clear
4:55 PM 35.6 °F 24.8 °F 1.4 °F 24% 30.23 in 10.0 mi North 19.6 mph 23.0 mph N/A   Clear
5:15 PM 35.6 °F 25.9 °F -0.4 °F 22% 30.25 in 10.0 mi North 16.1 mph - N/A   Clear
5:35 PM 33.8 °F 22.8 °F -0.4 °F 23% 30.24 in 10.0 mi North 18.4 mph - N/A   Clear
5:55 PM 32.0 °F 20.1 °F 5.0 °F 32% 30.24 in 10.0 mi North 19.6 mph 26.5 mph N/A   Clear
6:15 PM 30.2 °F 17.8 °F 1.4 °F 29% 30.25 in 10.0 mi North 19.6 mph - N/A   Clear
6:35 PM 30.2 °F 17.8 °F 3.2 °F 32% 30.26 in 10.0 mi North 19.6 mph 25.3 mph N/A   Clear
6:55 PM 28.4 °F 16.2 °F 3.2 °F 34% 30.26 in 10.0 mi North 17.3 mph 23.0 mph N/A   Clear
7:15 PM 28.4 °F 15.8 °F 1.4 °F 31% 30.26 in 10.0 mi North 18.4 mph 26.5 mph N/A   Clear
7:35 PM 28.4 °F 14.7 °F -0.4 °F 29% 30.26 in 10.0 mi North 21.9 mph 28.8 mph N/A   Clear
7:55 PM 28.4 °F 14.7 °F -0.4 °F 29% 30.27 in 10.0 mi North 21.9 mph 26.5 mph N/A   Clear
8:15 PM 26.6 °F 14.3 °F -0.4 °F 31% 30.27 in 10.0 mi North 16.1 mph 24.2 mph N/A   Clear
8:35 PM 26.6 °F 15.2 °F 1.4 °F 34% 30.28 in 10.0 mi North 13.8 mph 21.9 mph N/A   Clear
8:55 PM 26.6 °F 14.3 °F 1.4 °F 34% 30.28 in 10.0 mi North 16.1 mph - N/A   Clear
9:15 PM 26.6 °F 13.8 °F 1.4 °F 34% 30.29 in 10.0 mi NNE 17.3 mph - N/A   Clear
9:35 PM 26.6 °F 13.8 °F 1.4 °F 34% 30.30 in 10.0 mi North 17.3 mph 21.9 mph N/A   Clear
9:55 PM 26.6 °F 14.3 °F 1.4 °F 34% 30.29 in 10.0 mi NNE 16.1 mph 24.2 mph N/A   Clear
10:15 PM 26.6 °F 15.2 °F 1.4 °F 34% 30.29 in 10.0 mi NNE 13.8 mph - N/A   Clear
10:35 PM 26.6 °F 15.7 °F 1.4 °F 34% 30.30 in 10.0 mi North 12.7 mph - N/A   Clear
10:55 PM 26.6 °F 15.2 °F -0.4 °F 31% 30.30 in 10.0 mi North 13.8 mph 18.4 mph N/A   Clear
11:15 PM 26.6 °F 14.7 °F -0.4 °F 31% 30.30 in 10.0 mi NNE 15.0 mph - N/A   Clear
11:35 PM 26.6 °F 14.7 °F -0.4 °F 31% 30.30 in 10.0 mi NNE 15.0 mph - N/A   Clear
11:55 PM 26.6 °F 14.7 °F -0.4 °F 31% 30.31 in 10.0 mi North 15.0 mph - N/A   Clear